CZ-3C DEB, 42470

Orbit data source: Space-Track

CZ-3C DEB, 42470 is space debris in HEO originally from a launch on Sun, 31 Oct 2010 UTC launched from the Xichang Space Center, China (XSC). Debris objects in space refer to the collection of defunct objects orbiting the Earth. Examples of debris include non-operational satellites, rocket bodies, and fragments generated from explosions, collisions, or faulty payload assembly.

Loading next visibility...
Identifier
42470, 2010-057BK
Orbit
HEO
Country
Flag of CNCN / PRC
Related business
Manufacturer
CALT
Mission
Spacecraft
Bus & Motor
Unknown
Mass
Unknown
Launch date (UTC)
2010-10-31 (15 years ago)
Launch vehicle
Unknown
Launch site
Xichang Space Center, China (XSC)
Object type
Payload
Rocket body
Debris
Shape & HBR
Unknown shape, 0.2 m
Radar Cross Section
Medium (>0.1 m² and <1 m²)

Expand to show TLE details & history
Last TLE update: 1 day ago

TLE from 1 day ago
0 CZ-3C DEB
1 42470U 10057BK  25306.28739861  .00019958  00000-0  26999-1 0  9998
2 42470  21.2572  20.9920 6739169 193.2157 131.5797  2.91109000115281
Epoch: 2025-11-02T06:53Z
TLE epoch observation values (Epoch: 2025-11-02T06:53:51.239Z)
Latitude
-0°
Longitude
-124.28181°
Altitude
26,512.65 km
Speed
2.236 km/s
True Right ascension
01h 23m 56s
True Declination
0° 00' 00"
Sunlit
Object was in daylight at epoch
Visualization orbit readout
Latitude
Unknown
Longitude
Unknown
Altitude
Unknown
Speed
Unknown
Apparent Right ascension
Unknown
Apparent Declination
Unknown
Sunlit
N/A
Visualization observer readout
Local Sidereal Time
06:06:21
Azimuth
Unknown
Elevation
Unknown
Doppler factor
Unknown
Orbital elements
Apogee altitude
28,310.531 km
Perigee altitude
379.3 km
Semi-major axis
20,723.053 km
Eccentricity
0.67392
Inclination
21.2572°
RAAN
20.992°
Arg. of periapsis
193.2157°
True anomaly
166.77116°
Mean anomaly
131.5797°
Eccentric anomaly
150.5589°
Mean motion
0.72755 °/min
Orbital period
494.81 mins
BSTAR
0.026999
Loading maneuver chart data...
Computing Atmospheric mass density...
Loading historical data...
Loading historical data...
Loading historical data...
Loading historical data...
Loading historical data...
Loading historical data...
Loading historical data...

Documentation

Showing up to 5 results
|